RJOORJAA

Guest
Details From RJOO - OSAKA INTL
To RJAA - NARITA INTL
Flight Number -
Tags generated
Created
Modified
Stats Distance 254 nm / 471 km
Max Altitude 29,400 ft / 8,961 m
Waypoints 5
Social Downloads 2
Likes 0
Share VATSIM

Download

Looking for another format? Having issues loading an existing format? Contact us
Advertisement - Login to hide

Notes

Basic altitude profile: - Ascent Rate: 2500ft/min - Ascent Speed: 250kts - Cruise Altitude: 37000ft - Cruise Speed: 320kts - Descent Rate: 1800ft/min - Descent Speed: 250kts Options: - Use NATs: yes - Use PACOTS: yes - Use low airways: yes - Use high airways: yes

Route

RJOO GUJYO Y20 DF RJAA

ID Type Via Altitude Latitude Longitude Leg Dist Tot Dist Heading (true) Name
O RJOO APT - 0 ft / 0 m 34.78560˚ 135.43802˚ - 0 nm - OSAKA INTL
GUJYO FIX - 23,500 ft / 7,163 m 35.36403˚ 136.57736˚ 65 nm 65 nm 58° / 59° -
AKANE FIX Y20 (AWY-HI) 29,400 ft / 8,961 m 35.53126˚ 137.50088˚ 46 nm 112 nm 77° / 78° -
DF NDB Y20 (AWY-LO) 19,000 ft / 5,791 m 35.57977˚ 139.37626˚ 91 nm 203 nm 88° / 89° ZAMA NDB
O RJAA APT - 0 ft / 0 m 35.77655˚ 140.38277˚ 50 nm 254 nm 76° / 77° NARITA INTL

Altitude Profile

Advertisement - Login to hide

Weather


0- 5 10 15 20 25 30 35+ Temperature / ° C

Clouds and Precipitation
Forecast for 2017-12-14 00:00 UTC. Updated 3 minutes ago

Ground ~20,000 ft ~40,000 ft Winds

RJOO

Details ICAO RJOO (ITM)
Name OSAKA INTL
Region Japan
Timezone Asia/Tokyo (UTC+9.0)
Stats Elevation 50 ft / 15 m (AMSL)
Location 34.785603° 135.438019°
Runways 2
Magnetic Variation 7.678° W

METAR

Not found

TAF

TAF RJOO 131708Z 1318/1500 34012KT 9999 FEW025 SCT045

Decode

Departure Runways

ID Width Length Bearing (true) Bearing (mag) Surface Threshold Offset Overrun Length
14L 150 ft / 46 m 5,999 ft / 1,829 m 135.13° 142.81° Asphalt 0 ft / 0 m 678 ft / 207 m
14R 200 ft / 61 m 9,846 ft / 3,001 m 135.13° 142.81° Concrete 0 ft / 0 m 240 ft / 73 m
32L 200 ft / 61 m 9,846 ft / 3,001 m 315.15° 322.83° Concrete 0 ft / 0 m 249 ft / 76 m
32R 150 ft / 46 m 5,999 ft / 1,829 m 315.14° 322.82° Asphalt 0 ft / 0 m 571 ft / 174 m

RJAA

Details ICAO RJAA (NRT)
Name NARITA INTL
Region Japan
Timezone Asia/Tokyo (UTC+9.0)
Stats Elevation 141 ft / 43 m (AMSL)
Location 35.776552° 140.382770°
Runways 2
Magnetic Variation 7.405° W

METAR

RJAA 131900Z 31008KT 9999 FEW030 01/M08 Q1017 NOSIG

Decode

TAF

TAF RJAA 131705Z 1318/1500 32008KT 9999 FEW030= TAF RJBB 131706Z 1318/1500 34015KT 9999 FEW020 BKN040 BECMG 1415/1418 06008KT

Decode

Destination Runways

ID Width Length Bearing (true) Bearing (mag) Surface Threshold Offset Overrun Length
16L 196 ft / 60 m 7,162 ft / 2,183 m 149.61° 157.02° Asphalt 190 ft / 58 m 0 ft / 0 m
16R 196 ft / 60 m 13,142 ft / 4,006 m 149.61° 157.02° Asphalt 0 ft / 0 m 410 ft / 125 m
34L 196 ft / 60 m 13,142 ft / 4,006 m 329.62° 337.03° Asphalt 0 ft / 0 m 415 ft / 126 m
34R 196 ft / 60 m 7,162 ft / 2,183 m 329.62° 337.03° Asphalt 190 ft / 58 m 0 ft / 0 m

Approach Navaids

Runway Type Ident Frequency Range Bearing (true) Bearing (mag) Slope Elevation
16L Localiser ITM 110.70 MHz 18 nm / 33 km 149.62° 157.02° - 141 ft / 43 m (AMSL)
16L Glidescope ITM 110.70 MHz 10 nm / 19 km 149.62° 157.02° 3.00° 141 ft / 43 m (AMSL)
16L DME ITM 110.70 MHz 18 nm / 33 km - - - 145 ft / 44 m (AMSL)
16R Localiser IKF 111.50 MHz 18 nm / 33 km 149.63° 157.03° - 141 ft / 43 m (AMSL)
16R Glidescope IKF 111.50 MHz 10 nm / 19 km 149.62° 157.02° 3.00° 141 ft / 43 m (AMSL)
16R DME IKF 111.50 MHz 18 nm / 33 km - - - 145 ft / 44 m (AMSL)
34L Localiser IYQ 111.90 MHz 18 nm / 33 km 329.61° 337.01° - 141 ft / 43 m (AMSL)
34L Glidescope IYQ 111.90 MHz 10 nm / 19 km 329.62° 337.02° 3.00° 141 ft / 43 m (AMSL)
34L DME IYQ 111.90 MHz 18 nm / 33 km - - - 153 ft / 47 m (AMSL)
34R Localiser ITJ 110.90 MHz 18 nm / 33 km 329.62° 337.02° - 141 ft / 43 m (AMSL)
34R Glidescope ITJ 110.90 MHz 10 nm / 19 km 329.62° 337.02° 3.00° 141 ft / 43 m (AMSL)
34R DME ITJ 110.90 MHz 18 nm / 33 km - - - 148 ft / 45 m (AMSL)

Popular Alternatives